Location: New Plymouth
(39.0670°S, 174.0830°E)
Time: 02:35:50
(UTC+13:00)

Cosmos 1184 Rocket - Pass Details

Date: 24 January 2019
Orbit: 414 x 429 km, 81.2° (Epoch: 22 February)

Event Time Altitude Azimuth Distance (km) Brightness Sun altitude
Rises 21:23:47 0° 339° (NNW) 2,392 6.5 -7.2°
Reaches altitude 10° 21:25:52 10° 332° (NNW) 1,537 5.6 -7.5°
Maximum altitude 21:29:05 44° 258° (WSW) 621 4.2 -8.1°
Drops below altitude 10° 21:32:23 10° 184° (S) 1,566 6.2 -8.6°
Sets 21:34:32 0° 177° (S) 2,445 7.1 -9.0°
